Content
SEND FEEDBACK

Daily
Averages
Monthly
Summary
United States of America

INARAJAN, GUAM


Home > North America > United States > Guam
Elevation: 280 feet     Latitude: 13 18N     Longitude: 144 44E

WEATHER
 
SELECT A DAY
Number of Records: 354,566;   Date Range: 1/1/95 - 11/24/14
 
SHARE

PRINT THIS DATA

[ ← Previous Day ]
WEATHER ALMANAC - MARCH 4, 2014
[ Next Day → ]
[ °C ]   °F
Weather ElementAverageHighLow
Temperature78 °F81 °F (12:58 pm)75.7 °F (11:58 pm)
Dewpoint74.8 °F77 °F (12:23 am)69.8 °F (5:58 pm)
Humidity90 %100 % (12:23 am)75 % (4:58 pm)
Barometer29.69 in29.77 in (9:43 am)29.62 in (4:58 am)
Wind Speed17 mph25.3 mph (8:58 am)
Wind Gust36.8 mph (8:58 am)
Weather ElementAverage
Visibility9.8 mi
Wind DirectionNNW (329.1 °)

Weather ElementTotal
Precipitation0.10 in
Cooling Degree Days13.4 (Base 65)
Growing Degree Days28.4 (Base 50)
Averaged from 79 records on March 4, 2014
WEATHER CONDITIONS BREAKOUT
WIND DIRECTION BREAKOUT
WEATHER BY HOUR - MARCH 4, 2014
[ °C ]   °F
Local TimeTemperatureDewpointHumidityBarometerVisibilityWind DirectionWind SpeedGust SpeedPrecipitationEventsConditions
12:23 AM77.0 °F77.0 °F100 %29.70 in10.0 miNNW (330°)13.8 mph21.9 mphOvercast
12:58 AM78.8 °F77.0 °F94 %29.65 in10.0 miNNW (340°)16.1 mph24.2 mphOvercast
1:15 AM78.8 °F77.0 °F94 %29.68 in10.0 miNorth (350°)12.7 mph27.6 mphRainLight Rain
1:37 AM77.0 °F75.2 °F94 %29.67 in10.0 miNNW (330°)12.7 mph20.7 mphMostly Cloudy
1:42 AM77.0 °F75.2 °F94 %29.67 in10.0 miNorth (350°)10.4 mph19.6 mphOvercast
1:52 AM77.0 °F75.2 °F94 %29.67 in10.0 miNNW (340°)11.5 mph19.6 mphOvercast
1:58 AM77.0 °F75.2 °F94 %29.64 in10.0 miNNW (330°)12.7 mph19.6 mph0.00 inOvercast
2:08 AM77.0 °F75.2 °F94 %29.67 in10.0 miNNW (340°)15.0 mph19.6 mphOvercast
2:13 AM77.0 °F75.2 °F94 %29.67 in10.0 miNNW (340°)12.7 mph23.0 mphOvercast
2:18 AM77.0 °F75.2 °F94 %29.67 in10.0 miNorth (350°)12.7 mph23.0 mphOvercast
2:23 AM77.0 °F75.2 °F94 %29.67 in10.0 miNNW (340°)12.7 mph19.6 mphOvercast
2:44 AM77.0 °F75.2 °F94 %29.67 in10.0 miNorth (350°)13.8 mph23.0 mphLight Drizzle
2:54 AM77.0 °F75.2 °F94 %29.67 in5.0 miNorth (10°)11.5 mph17.3 mphRainLight Rain
2:58 AM77.0 °F75.2 °F94 %29.64 in5.0 miNNW (340°)11.5 mph20.7 mph0.03 inRainLight Rain
3:03 AM77.0 °F75.2 °F94 %29.67 in9.0 miNNW (340°)15.0 mph20.7 mphRainLight Rain
3:06 AM77.0 °F75.2 °F94 %29.67 in10.0 miNorth (350°)17.3 mph24.2 mphOvercast
3:11 AM77.0 °F75.2 °F94 %29.67 in10.0 miNorth (350°)16.1 mph24.2 mphOvercast
3:21 AM77.0 °F75.2 °F94 %29.66 in10.0 miNorth (350°)12.7 mph21.9 mphMostly Cloudy
3:26 AM77.0 °F75.2 °F94 %29.66 in10.0 miNorth (350°)16.1 mph21.9 mphOvercast
3:30 AM77.0 °F75.2 °F94 %29.66 in10.0 miNorth (350°)12.7 mph21.9 mphLight Drizzle
3:35 AM77.0 °F75.2 °F94 %29.66 in10.0 miNNW (330°)12.7 mph20.7 mphRainLight Rain
3:50 AM77.0 °F75.2 °F94 %29.66 in5.0 miNNW (330°)19.6 mphRainHeavy Rain
3:56 AM77.0 °F75.2 °F94 %29.66 in10.0 miNNW (330°)19.6 mph26.5 mphOvercast
3:58 AM77.0 °F75.2 °F94 %29.63 in10.0 miNNW (330°)18.4 mph26.5 mph0.06 inOvercast
4:13 AM77.0 °F75.2 °F94 %29.66 in10.0 miNNW (330°)18.4 mph27.6 mphOvercast
4:18 AM77.0 °F75.2 °F94 %29.65 in10.0 miNNW (330°)20.7 mph28.8 mphMostly Cloudy
4:33 AM77.0 °F75.2 °F94 %29.65 in10.0 miNNW (330°)19.6 mph27.6 mphScattered Clouds
4:48 AM77.0 °F75.2 °F94 %29.65 in10.0 miNNW (330°)17.3 mph28.8 mphMostly Cloudy
4:58 AM77.0 °F75.2 °F94 %29.62 in10.0 miNNW (330°)16.1 mph28.8 mph0.01 inMostly Cloudy
5:38 AM77.0 °F77.0 °F100 %29.66 in10.0 miNNW (330°)19.6 mph31.1 mphMostly Cloudy
5:48 AM77.0 °F75.2 °F94 %29.66 in10.0 miNNW (330°)18.4 mph28.8 mphMostly Cloudy
5:58 AM77.0 °F77.0 °F100 %29.64 in10.0 miNNW (330°)19.6 mph28.8 mphMostly Cloudy
6:13 AM77.0 °F77.0 °F100 %29.68 in10.0 miNNW (330°)16.1 mph27.6 mphScattered Clouds
6:28 AM77.0 °F77.0 °F100 %29.69 in10.0 miNW (320°)18.4 mph31.1 mphMostly Cloudy
6:33 AM77.0 °F77.0 °F100 %29.69 in10.0 miNNW (330°)23.0 mph31.1 mphScattered Clouds
6:38 AM77.0 °F77.0 °F100 %29.69 in10.0 miNNW (330°)23.0 mph31.1 mphScattered Clouds
6:48 AM77.0 °F77.0 °F100 %29.70 in10.0 miNNW (340°)16.1 mph31.1 mphMostly Cloudy
6:51 AM77.0 °F77.0 °F100 %29.70 in10.0 miNNW (330°)18.4 mph31.1 mphRainLight Rain
6:56 AM77.0 °F77.0 °F100 %29.71 in10.0 miNNW (340°)18.4 mph33.4 mphRainLight Rain
6:58 AM77.7 °F76.6 °F96 %29.68 in10.0 miNNW (340°)18.4 mph33.4 mph0.00 inRainLight Rain
7:00 AM77.0 °F77.0 °F100 %29.71 in10.0 miNNW (330°)19.6 mph33.4 mphMostly Cloudy
7:05 AM77.0 °F77.0 °F100 %29.71 in10.0 miNNW (340°)18.4 mph33.4 mphMostly Cloudy
7:27 AM78.8 °F75.2 °F89 %29.72 in10.0 miNNW (340°)18.4 mph32.2 mphRainLight Rain
7:32 AM77.0 °F77.0 °F100 %29.72 in10.0 miNorth (350°)19.6 mph32.2 mphRainLight Rain
7:38 AM78.8 °F77.0 °F94 %29.72 in10.0 miNNW (340°)16.1 mph31.1 mphScattered Clouds
7:58 AM78.4 °F75.9 °F92 %29.70 in10.0 miNNW (340°)21.9 mph33.4 mph0.00 inScattered Clouds
8:28 AM78.8 °F77.0 °F94 %29.74 in10.0 miNNW (330°)17.3 mph27.6 mphMostly Cloudy
8:33 AM78.8 °F75.2 °F89 %29.74 in10.0 miNNW (340°)16.1 mph32.2 mphScattered Clouds
8:48 AM78.8 °F75.2 °F89 %29.75 in10.0 miNNW (330°)20.7 mph29.9 mphMostly Cloudy
8:58 AM78.4 °F74.5 °F88 %29.72 in10.0 miNNW (330°)25.3 mph36.8 mphScattered Clouds
9:18 AM78.8 °F75.2 °F89 %29.76 in10.0 miNNW (330°)19.6 mph34.5 mphMostly Cloudy
9:23 AM78.8 °F75.2 °F89 %29.76 in10.0 miNNW (340°)17.3 mph34.5 mphScattered Clouds
9:33 AM78.8 °F75.2 °F89 %29.76 in10.0 miNNW (330°)15.0 mph31.1 mphMostly Cloudy
9:43 AM78.8 °F75.2 °F89 %29.77 in10.0 miNNW (330°)20.7 mph34.5 mphScattered Clouds
9:58 AM79.9 °F73.0 °F80 %29.74 in10.0 miNNW (340°)23.0 mph34.5 mphPartly Cloudy
10:58 AM79.9 °F73.4 °F80 %29.72 in10.0 miNNW (330°)23.0 mph31.1 mphPartly Cloudy
11:23 AM80.6 °F73.4 °F79 %29.75 in10.0 miNNW (340°)15.0 mph28.8 mphMostly Cloudy
11:28 AM80.6 °F73.4 °F79 %29.74 in10.0 miNNW (330°)20.7 mph28.8 mphScattered Clouds
11:58 AM80.6 °F73.8 °F80 %29.70 in10.0 miNNW (340°)16.1 mph28.8 mphScattered Clouds
12:58 PM81.0 °F74.1 °F80 %29.68 in10.0 miNNW (340°)16.1 mph25.3 mphPartly Cloudy
1:18 PM80.6 °F73.4 °F79 %29.71 in10.0 miNNW (330°)18.4 mph26.5 mphMostly Cloudy
1:23 PM80.6 °F73.4 °F79 %29.71 in10.0 miNW (320°)18.4 mph25.3 mphMostly Cloudy
1:33 PM80.6 °F73.4 °F79 %29.71 in10.0 miNW (320°)17.3 mph28.8 mphMostly Cloudy
1:43 PM80.6 °F75.2 °F84 %29.71 in10.0 miNW (320°)16.1 mph25.3 mphMostly Cloudy
1:48 PM80.6 °F75.2 °F84 %29.70 in10.0 miNNW (330°)17.3 mph25.3 mphScattered Clouds
1:52 PM80.6 °F73.4 °F79 %29.70 in10.0 miNNW (330°)17.3 mph25.3 mphRainLight Rain
1:57 PM80.6 °F73.4 °F79 %29.70 in10.0 miNNW (330°)18.4 mph26.5 mphRainLight Rain
1:58 PM80.6 °F73.4 °F79 %29.67 in10.0 miNNW (330°)18.4 mph26.5 mph0.00 inRainLight Rain
2:01 PM80.6 °F73.4 °F79 %29.70 in10.0 miNNW (330°)17.3 mph26.5 mphMostly Cloudy
2:58 PM80.2 °F72.9 °F78 %29.66 in10.0 miNNW (330°)19.6 mph27.6 mph0.00 inScattered Clouds
3:58 PM80.1 °F72.7 °F78 %29.64 in10.0 miNNW (330°)18.4 mph25.3 mphScattered Clouds
4:58 PM79.2 °F70.5 °F75 %29.65 in10.0 miNW (320°)18.4 mph28.8 mphClear
5:58 PM77.9 °F69.8 °F76 %29.68 in10.0 miNW (320°)16.1 mphClear
6:58 PM77.2 °F70.5 °F80 %29.70 in10.0 miNW (320°)16.1 mph23.0 mphClear
7:58 PM76.8 °F70.2 °F80 %29.71 in10.0 miNW (320°)13.8 mphClear
8:58 PM76.6 °F70.9 °F82 %29.71 in10.0 miNW (320°)13.8 mphPartly Cloudy
9:58 PM76.1 °F70.5 °F83 %29.72 in10.0 miNW (310°)12.7 mphPartly Cloudy
10:58 PM76.3 °F70.2 °F81 %29.72 in10.0 miNW (310°)15.0 mphPartly Cloudy
11:58 PM75.7 °F69.8 °F82 %29.72 in10.0 miNW (310°)15.0 mphClear
Hourly data recorded from PGUA, located miles away from Inarajan, Guam







STORIES FROM OUR PARTNERS